QPF
0.00 0.00 0.02 0.03 0.03 0.04 0.04 0.04 0.04 0.04 0.03 0.03 0.03 0.03 0.03 0.02 0.01 0.01 0.01 0.01 0.01 0.02 0.02 0.02 0.02 0.02 0.02 0.01 0.01 0.01 0.00 0.01 0.01 0.01 0.01 0.01 0.01 0.01 0.01 0.00 0.01 0.01 0.01
0.00 0.01 0.02 0.03 0.03 0.03 0.03 0.03 0.04 0.04 0.03 0.03 0.03 0.04 0.03 0.02 0.02 0.01 0.02 0.01 0.01 0.01 0.01 0.01 0.01 0.01 0.01 0.01 0.02 0.02 0.00 0.00 0.00 0.00 0.00 0.00 0.01 0.01 0.01 0.01 0.00 0.01 0.01
0.01 0.02 0.03 0.04 0.03 0.03 0.02 0.02 0.03 0.04 0.04 0.03 0.03 0.04 0.04 0.03 0.03 0.02 0.02 0.02 0.02 0.01 0.01 0.01 0.01 0.01 0.01 0.01 0.02 0.03 0.00 0.00 0.00 0.00 0.00 0.00 0.00 0.01 0.01 0.01 0.01 0.02 0.02
0.02 0.03 0.03 0.05 0.05 0.04 0.03 0.02 0.03 0.06 0.05 0.05 0.03 0.03 0.04 0.04 0.04 0.03 0.03 0.03 0.02 0.02 0.02 0.01 0.01 0.01 0.01 0.01 0.01 0.02 0.01 0.01 0.00 0.00 0.00 0.00 0.00 0.01 0.01 0.01 0.02 0.03 0.02
0.02 0.04 0.04 0.06 0.07 0.06 0.05 0.03 0.03 0.07 0.07 0.06 0.04 0.03 0.04 0.03 0.03 0.03 0.03 0.03 0.02 0.02 0.02 0.02 0.01 0.01 0.01 0.01 0.01 0.01 0.01 0.00 0.00 0.00 0.00 0.00 0.00 0.01 0.01 0.01 0.01 0.02 0.02
0.02 0.05 0.08 0.08 0.07 0.06 0.06 0.05 0.04 0.06 0.07 0.07 0.05 0.04 0.03 0.03 0.03 0.03 0.03 0.03 0.02 0.02 0.02 0.02 0.02 0.01 0.00 0.00 0.01 0.01 0.01 0.00 0.00 0.00 0.00 0.00 0.00 0.01 0.01 0.01 0.01 0.01 0.02
0.06 0.08 0.09 0.09 0.09 0.07 0.07 0.07 0.05 0.05 0.06 0.08 0.06 0.05 0.03 0.04 0.04 0.03 0.03 0.02 0.02 0.02 0.02 0.02 0.02 0.02 0.01 0.00 0.00 0.01 0.01 0.00 0.00 0.00 0.00 0.00 0.00 0.01 0.01 0.01 0.01 0.01 0.01
0.11 0.09 0.10 0.10 0.10 0.08 0.06 0.06 0.06 0.05 0.05 0.07 0.08 0.05 0.04 0.04 0.05 0.04 0.04 0.03 0.02 0.02 0.02 0.02 0.03 0.02 0.02 0.01 0.00 0.00 0.00 0.00 0.00 0.00 0.00 0.00 0.00 0.01 0.02 0.01 0.01 0.01 0.01
0.15 0.14 0.10 0.10 0.10 0.08 0.07 0.05 0.05 0.05 0.05 0.06 0.08 0.05 0.03 0.03 0.03 0.04 0.04 0.04 0.03 0.02 0.02 0.02 0.02 0.02 0.02 0.01 0.01 0.00 0.00 0.00 0.00 0.00 0.00 0.00 0.00 0.01 0.02 0.02 0.02 0.02 0.02
0.19 0.20 0.16 0.11 0.10 0.08 0.09 0.07 0.04 0.04 0.04 0.06 0.07 0.05 0.02 0.02 0.02 0.02 0.03 0.03 0.03 0.02 0.02 0.02 0.02 0.02 0.02 0.02 0.01 0.01 0.00 0.00 0.00 0.00 0.00 0.00 0.00 0.01 0.02 0.02 0.02 0.03 0.03
0.20 0.23 0.20 0.14 0.10 0.08 0.09 0.09 0.06 0.05 0.04 0.06 0.08 0.05 0.02 0.01 0.01 0.01 0.02 0.03 0.03 0.03 0.02 0.02 0.02 0.02 0.02 0.02 0.02 0.01 0.00 0.00 0.00 0.00 0.00 0.00 0.01 0.02 0.03 0.02 0.01 0.02 0.02
0.18 0.21 0.23 0.17 0.09 0.07 0.07 0.09 0.09 0.06 0.05 0.05 0.09 0.05 0.02 0.01 0.01 0.01 0.02 0.03 0.03 0.04 0.03 0.02 0.02 0.03 0.02 0.02 0.02 0.01 0.01 0.00 0.00 0.00 0.00 0.00 0.01 0.01 0.03 0.03 0.02 0.02 0.02
0.22 0.23 0.23 0.21 0.14 0.08 0.05 0.06 0.06 0.05 0.03 0.05 0.10 0.05 0.02 0.02 0.01 0.01 0.02 0.03 0.04 0.04 0.04 0.04 0.03 0.03 0.02 0.02 0.01 0.01 0.00 0.00 0.00 0.00 0.00 0.00 0.01 0.02 0.02 0.02 0.03 0.02 0.02
0.19 0.24 0.24 0.22 0.19 0.12 0.07 0.04 0.05 0.04 0.03 0.04 0.07 0.05 0.02 0.01 0.01 0.00 0.01 0.02 0.03 0.04 0.04 0.04 0.04 0.04 0.03 0.03 0.02 0.00 0.00 0.00 0.00 0.00 0.00 0.00 0.01 0.02 0.02 0.02 0.02 0.02 0.02
0.18 0.18 0.21 0.21 0.17 0.11 0.07 0.05 0.04 0.04 0.04 0.03 0.04 0.04 0.03 0.01 0.01 0.00 0.01 0.01 0.02 0.03 0.04 0.05 0.05 0.04 0.03 0.03 0.03 0.01 0.00 0.00 0.00 0.00 0.01 0.00 0.00 0.01 0.02 0.02 0.02 0.02 0.03
0.17 0.16 0.18 0.20 0.17 0.11 0.06 0.05 0.04 0.03 0.03 0.03 0.02 0.03 0.03 0.02 0.01 0.01 0.00 0.01 0.03 0.04 0.05 0.06 0.06 0.04 0.04 0.04 0.03 0.02 0.01 0.00 0.00 0.00 0.00 0.00 0.00 0.01 0.02 0.03 0.04 0.04 0.04
0.15 0.14 0.16 0.16 0.16 0.14 0.08 0.04 0.04 0.03 0.03 0.02 0.02 0.02 0.03 0.03 0.02 0.01 0.01 0.01 0.02 0.04 0.07 0.08 0.08 0.07 0.05 0.04 0.03 0.03 0.02 0.01 0.00 0.00 0.00 0.00 0.00 0.00 0.01 0.03 0.04 0.04 0.04
0.15 0.13 0.11 0.11 0.13 0.15 0.12 0.06 0.04 0.03 0.03 0.03 0.03 0.02 0.03 0.04 0.03 0.02 0.01 0.01 0.02 0.03 0.06 0.08 0.09 0.09 0.08 0.05 0.04 0.03 0.03 0.02 0.01 0.01 0.00 0.00 0.00 0.00 0.01 0.01 0.03 0.04 0.05
0.11 0.13 0.10 0.07 0.08 0.13 0.13 0.10 0.07 0.04 0.03 0.03 0.03 0.04 0.04 0.04 0.04 0.02 0.01 0.01 0.02 0.03 0.04 0.06 0.07 0.07 0.07 0.05 0.04 0.03 0.03 0.02 0.02 0.01 0.01 0.00 0.00 0.00 0.00 0.01 0.01 0.02 0.03
0.07 0.10 0.10 0.07 0.07 0.09 0.11 0.11 0.09 0.08 0.05 0.04 0.04 0.04 0.05 0.05 0.04 0.03 0.02 0.01 0.01 0.03 0.03 0.04 0.06 0.06 0.06 0.05 0.04 0.03 0.03 0.03 0.03 0.02 0.01 0.01 0.00 0.00 0.00 0.01 0.00 0.01 0.01
0.05 0.07 0.07 0.07 0.08 0.09 0.08 0.09 0.10 0.11 0.09 0.06 0.04 0.04 0.05 0.07 0.05 0.04 0.03 0.01 0.02 0.04 0.03 0.03 0.05 0.06 0.05 0.05 0.04 0.03 0.02 0.02 0.02 0.03 0.03 0.02 0.01 0.01 0.00 0.00 0.00 0.00 0.00
0.04 0.04 0.04 0.05 0.07 0.08 0.07 0.07 0.09 0.09 0.11 0.12 0.09 0.05 0.05 0.07 0.08 0.06 0.04 0.02 0.02 0.03 0.05 0.04 0.05 0.06 0.05 0.05 0.05 0.04 0.03 0.02 0.02 0.02 0.03 0.04 0.02 0.01 0.01 0.01 0.01 0.00 0.00
0.04 0.04 0.03 0.03 0.05 0.07 0.07 0.06 0.08 0.08 0.09 0.11 0.12 0.10 0.08 0.08 0.08 0.08 0.06 0.04 0.03 0.04 0.05 0.05 0.05 0.05 0.05 0.04 0.04 0.04 0.04 0.03 0.02 0.01 0.01 0.02 0.02 0.01 0.01 0.01 0.01 0.01 0.00
0.05 0.04 0.02 0.03 0.04 0.05 0.06 0.06 0.06 0.07 0.06 0.06 0.08 0.09 0.09 0.08 0.08 0.08 0.07 0.05 0.04 0.04 0.05 0.06 0.05 0.04 0.04 0.04 0.03 0.04 0.03 0.02 0.01 0.01 0.01 0.01 0.01 0.01 0.01 0.00 0.01 0.01 0.01
0.04 0.05 0.03 0.03 0.04 0.04 0.03 0.04 0.05 0.04 0.04 0.03 0.04 0.06 0.08 0.08 0.08 0.07 0.06 0.05 0.04 0.04 0.05 0.05 0.05 0.04 0.04 0.05 0.03 0.03 0.03 0.02 0.01 0.00 0.00 0.00 0.00 0.00 0.00 0.00 0.00 0.00 0.01
0.04 0.04 0.04 0.03 0.03 0.03 0.04 0.03 0.03 0.03 0.02 0.02 0.02 0.03 0.05 0.06 0.07 0.07 0.06 0.06 0.04 0.04 0.04 0.04 0.04 0.04 0.03 0.04 0.04 0.02 0.02 0.02 0.01 0.01 0.00 0.00 0.00 0.00 0.00 0.00 0.00 0.00 0.00
MSLP
1009.24 1008.81 1008.69 1008.86 1009.20 1009.63 1010.05 1010.39 1010.64 1010.79 1010.91 1011.06 1011.27 1011.60 1012.02 1012.52 1013.05 1013.55 1013.98 1014.32 1014.58 1014.78 1014.95 1015.12 1015.32 1015.56 1015.82 1016.09 1016.34 1016.55 1016.73 1016.88 1017.01 1017.13 1017.27 1017.41 1017.56 1017.71 1017.83 1017.92 1017.97 1017.99 1017.98
1009.20 1008.77 1008.64 1008.80 1009.15 1009.59 1010.03 1010.41 1010.70 1010.91 1011.07 1011.25 1011.48 1011.81 1012.23 1012.71 1013.22 1013.71 1014.13 1014.48 1014.76 1014.98 1015.17 1015.37 1015.58 1015.81 1016.06 1016.30 1016.51 1016.70 1016.85 1016.99 1017.12 1017.25 1017.40 1017.56 1017.72 1017.88 1018.01 1018.10 1018.15 1018.17 1018.17
1009.04 1008.61 1008.48 1008.64 1009.00 1009.47 1009.97 1010.41 1010.77 1011.05 1011.28 1011.50 1011.76 1012.08 1012.47 1012.91 1013.37 1013.81 1014.21 1014.55 1014.84 1015.08 1015.31 1015.54 1015.78 1016.03 1016.27 1016.49 1016.69 1016.85 1016.99 1017.12 1017.25 1017.39 1017.55 1017.71 1017.88 1018.03 1018.15 1018.24 1018.29 1018.32 1018.33
1008.79 1008.37 1008.26 1008.43 1008.82 1009.33 1009.88 1010.40 1010.85 1011.21 1011.51 1011.78 1012.06 1012.37 1012.72 1013.10 1013.49 1013.88 1014.24 1014.56 1014.85 1015.12 1015.39 1015.66 1015.93 1016.20 1016.46 1016.68 1016.87 1017.03 1017.17 1017.29 1017.42 1017.56 1017.72 1017.88 1018.04 1018.17 1018.27 1018.35 1018.39 1018.42 1018.45
1008.52 1008.13 1008.04 1008.23 1008.65 1009.20 1009.81 1010.39 1010.92 1011.37 1011.74 1012.06 1012.35 1012.66 1012.97 1013.29 1013.62 1013.95 1014.26 1014.56 1014.85 1015.14 1015.45 1015.75 1016.07 1016.37 1016.64 1016.88 1017.08 1017.24 1017.37 1017.50 1017.63 1017.78 1017.93 1018.07 1018.21 1018.31 1018.39 1018.43 1018.46 1018.49 1018.52
1008.32 1007.98 1007.92 1008.13 1008.56 1009.14 1009.77 1010.41 1010.99 1011.50 1011.93 1012.30 1012.62 1012.93 1013.22 1013.51 1013.79 1014.07 1014.35 1014.62 1014.91 1015.22 1015.54 1015.88 1016.22 1016.55 1016.84 1017.09 1017.29 1017.46 1017.60 1017.73 1017.87 1018.01 1018.15 1018.28 1018.38 1018.45 1018.49 1018.51 1018.51 1018.53 1018.56
1008.28 1007.99 1007.95 1008.18 1008.61 1009.17 1009.81 1010.45 1011.06 1011.60 1012.08 1012.49 1012.85 1013.18 1013.48 1013.76 1014.03 1014.28 1014.54 1014.80 1015.08 1015.39 1015.73 1016.08 1016.43 1016.77 1017.06 1017.31 1017.51 1017.68 1017.82 1017.96 1018.09 1018.23 1018.36 1018.47 1018.55 1018.59 1018.60 1018.58 1018.55 1018.55 1018.57
1008.42 1008.19 1008.18 1008.40 1008.81 1009.33 1009.93 1010.54 1011.13 1011.68 1012.18 1012.63 1013.04 1013.41 1013.75 1014.06 1014.34 1014.60 1014.85 1015.11 1015.39 1015.69 1016.02 1016.36 1016.70 1017.02 1017.30 1017.54 1017.73 1017.88 1018.02 1018.15 1018.29 1018.42 1018.54 1018.64 1018.70 1018.72 1018.70 1018.65 1018.60 1018.56 1018.57
1008.75 1008.57 1008.59 1008.80 1009.15 1009.61 1010.13 1010.67 1011.21 1011.73 1012.23 1012.72 1013.17 1013.61 1014.01 1014.38 1014.70 1015.00 1015.27 1015.53 1015.80 1016.09 1016.39 1016.71 1017.02 1017.30 1017.55 1017.75 1017.92 1018.06 1018.18 1018.30 1018.43 1018.57 1018.69 1018.78 1018.84 1018.84 1018.80 1018.73 1018.65 1018.59 1018.56
1009.20 1009.07 1009.11 1009.29 1009.59 1009.97 1010.39 1010.84 1011.30 1011.78 1012.26 1012.77 1013.27 1013.77 1014.25 1014.68 1015.07 1015.41 1015.71 1015.99 1016.25 1016.52 1016.80 1017.08 1017.34 1017.59 1017.79 1017.96 1018.10 1018.21 1018.31 1018.43 1018.55 1018.68 1018.80 1018.90 1018.96 1018.96 1018.91 1018.83 1018.73 1018.64 1018.58
1009.69 1009.61 1009.66 1009.83 1010.06 1010.35 1010.67 1011.02 1011.40 1011.82 1012.28 1012.79 1013.33 1013.89 1014.43 1014.94 1015.40 1015.79 1016.12 1016.41 1016.67 1016.93 1017.18 1017.43 1017.66 1017.87 1018.04 1018.18 1018.28 1018.37 1018.45 1018.55 1018.67 1018.79 1018.92 1019.02 1019.08 1019.10 1019.05 1018.96 1018.84 1018.73 1018.63
1010.12 1010.09 1010.16 1010.30 1010.49 1010.71 1010.95 1011.20 1011.50 1011.86 1012.29 1012.80 1013.36 1013.96 1014.56 1015.13 1015.63 1016.07 1016.43 1016.74 1017.01 1017.26 1017.50 1017.73 1017.95 1018.14 1018.30 1018.42 1018.51 1018.58 1018.65 1018.73 1018.83 1018.94 1019.07 1019.17 1019.24 1019.26 1019.22 1019.12 1018.99 1018.85 1018.71
1010.43 1010.44 1010.52 1010.66 1010.82 1010.99 1011.17 1011.37 1011.61 1011.92 1012.32 1012.82 1013.39 1014.01 1014.63 1015.23 1015.77 1016.23 1016.62 1016.94 1017.22 1017.48 1017.72 1017.97 1018.19 1018.40 1018.57 1018.70 1018.79 1018.86 1018.92 1018.99 1019.07 1019.17 1019.28 1019.39 1019.45 1019.47 1019.43 1019.33 1019.18 1019.01 1018.83
1010.59 1010.62 1010.72 1010.86 1011.01 1011.17 1011.32 1011.49 1011.71 1012.00 1012.38 1012.86 1013.43 1014.04 1014.67 1015.28 1015.83 1016.30 1016.69 1017.03 1017.32 1017.60 1017.88 1018.15 1018.42 1018.67 1018.88 1019.04 1019.16 1019.24 1019.30 1019.35 1019.42 1019.50 1019.59 1019.67 1019.73 1019.74 1019.69 1019.58 1019.41 1019.21 1018.99
1010.62 1010.65 1010.75 1010.90 1011.06 1011.23 1011.40 1011.58 1011.81 1012.10 1012.49 1012.96 1013.51 1014.11 1014.72 1015.31 1015.84 1016.30 1016.70 1017.04 1017.36 1017.67 1017.99 1018.32 1018.64 1018.95 1019.22 1019.44 1019.59 1019.70 1019.77 1019.82 1019.87 1019.92 1019.98 1020.04 1020.07 1020.07 1020.00 1019.87 1019.68 1019.45 1019.20
1010.55 1010.57 1010.66 1010.81 1010.99 1011.19 1011.41 1011.64 1011.91 1012.24 1012.64 1013.12 1013.65 1014.23 1014.81 1015.36 1015.87 1016.31 1016.70 1017.05 1017.39 1017.73 1018.09 1018.47 1018.87 1019.24 1019.58 1019.85 1020.06 1020.20 1020.29 1020.34 1020.37 1020.40 1020.44 1020.47 1020.47 1020.44 1020.36 1020.21 1020.00 1019.74 1019.46
1010.48 1010.45 1010.51 1010.66 1010.86 1011.11 1011.38 1011.69 1012.03 1012.41 1012.85 1013.34 1013.87 1014.42 1014.97 1015.49 1015.96 1016.38 1016.75 1017.11 1017.46 1017.83 1018.22 1018.65 1019.09 1019.52 1019.92 1020.25 1020.51 1020.68 1020.79 1020.85 1020.88 1020.90 1020.91 1020.92 1020.91 1020.86 1020.76 1020.59 1020.37 1020.09 1019.78
1010.46 1010.37 1010.38 1010.51 1010.73 1011.02 1011.36 1011.74 1012.16 1012.61 1013.10 1013.61 1014.15 1014.68 1015.20 1015.69 1016.13 1016.53 1016.90 1017.25 1017.60 1017.98 1018.40 1018.85 1019.31 1019.78 1020.21 1020.58 1020.87 1021.08 1021.22 1021.30 1021.34 1021.36 1021.37 1021.37 1021.35 1021.29 1021.19 1021.02 1020.79 1020.50 1020.17
1010.54 1010.38 1010.34 1010.43 1010.65 1010.97 1011.37 1011.82 1012.32 1012.84 1013.37 1013.92 1014.46 1014.99 1015.50 1015.96 1016.39 1016.78 1017.13 1017.47 1017.82 1018.20 1018.60 1019.05 1019.51 1019.98 1020.42 1020.80 1021.12 1021.36 1021.53 1021.64 1021.71 1021.75 1021.77 1021.79 1021.78 1021.73 1021.63 1021.48 1021.25 1020.96 1020.63
1010.74 1010.51 1010.41 1010.46 1010.67 1011.00 1011.44 1011.95 1012.50 1013.07 1013.65 1014.23 1014.78 1015.31 1015.81 1016.27 1016.69 1017.07 1017.42 1017.76 1018.10 1018.45 1018.83 1019.24 1019.67 1020.11 1020.53 1020.91 1021.24 1021.50 1021.70 1021.85 1021.96 1022.04 1022.10 1022.15 1022.17 1022.15 1022.08 1021.95 1021.74 1021.47 1021.15
1011.02 1010.74 1010.59 1010.61 1010.79 1011.12 1011.58 1012.12 1012.71 1013.31 1013.92 1014.51 1015.07 1015.60 1016.10 1016.57 1016.99 1017.38 1017.73 1018.06 1018.38 1018.71 1019.05 1019.40 1019.79 1020.17 1020.56 1020.92 1021.24 1021.52 1021.76 1021.95 1022.10 1022.23 1022.35 1022.44 1022.50 1022.53 1022.50 1022.41 1022.24 1022.00 1021.70
1011.34 1011.04 1010.87 1010.85 1011.01 1011.34 1011.79 1012.33 1012.93 1013.55 1014.16 1014.75 1015.31 1015.84 1016.34 1016.81 1017.24 1017.64 1018.00 1018.33 1018.63 1018.93 1019.22 1019.53 1019.84 1020.18 1020.52 1020.85 1021.17 1021.46 1021.73 1021.96 1022.17 1022.35 1022.51 1022.66 1022.77 1022.84 1022.87 1022.82 1022.69 1022.50 1022.23
1011.65 1011.37 1011.20 1011.17 1011.31 1011.62 1012.06 1012.59 1013.17 1013.77 1014.36 1014.93 1015.47 1015.99 1016.49 1016.96 1017.41 1017.82 1018.19 1018.52 1018.82 1019.09 1019.34 1019.59 1019.86 1020.14 1020.44 1020.75 1021.06 1021.37 1021.66 1021.93 1022.18 1022.41 1022.61 1022.80 1022.96 1023.07 1023.14 1023.14 1023.07 1022.92 1022.70
1011.90 1011.68 1011.53 1011.52 1011.65 1011.94 1012.36 1012.86 1013.41 1013.97 1014.53 1015.06 1015.57 1016.07 1016.55 1017.02 1017.47 1017.90 1018.28 1018.61 1018.91 1019.16 1019.39 1019.60 1019.83 1020.08 1020.35 1020.65 1020.96 1021.28 1021.59 1021.89 1022.16 1022.42 1022.65 1022.86 1023.04 1023.19 1023.30 1023.35 1023.33 1023.23 1023.07
1012.09 1011.94 1011.84 1011.85 1012.00 1012.28 1012.67 1013.14 1013.64 1014.16 1014.67 1015.15 1015.62 1016.09 1016.55 1017.00 1017.45 1017.87 1018.26 1018.60 1018.89 1019.14 1019.35 1019.56 1019.77 1020.00 1020.27 1020.56 1020.88 1021.21 1021.54 1021.85 1022.13 1022.39 1022.63 1022.84 1023.03 1023.20 1023.33 1023.41 1023.45 1023.41 1023.31
1012.20 1012.14 1012.10 1012.15 1012.32 1012.59 1012.97 1013.40 1013.87 1014.34 1014.79 1015.22 1015.64 1016.07 1016.49 1016.93 1017.36 1017.78 1018.16 1018.50 1018.79 1019.04 1019.25 1019.45 1019.67 1019.91 1020.18 1020.49 1020.82 1021.16 1021.49 1021.80 1022.08 1022.33 1022.55 1022.75 1022.92 1023.09 1023.23 1023.35 1023.43 1023.46 1023.43
Thickness
5720 5723 5724 5724 5724 5724 5724 5725 5725 5726 5726 5727 5726 5726 5726 5725 5725 5725 5725 5725 5725 5725 5725 5725 5725 5724 5724 5724 5724 5723 5723 5723 5723 5722 5722 5722 5722 5721 5721 5720 5719 5719 5718
5719 5720 5721 5721 5721 5721 5721 5721 5721 5722 5722 5722 5722 5722 5722 5722 5722 5722 5722 5722 5722 5722 5722 5722 5721 5721 5721 5721 5720 5720 5720 5719 5719 5719 5719 5719 5718 5718 5718 5717 5716 5716 5715
5715 5716 5717 5717 5717 5717 5717 5717 5717 5718 5718 5718 5718 5718 5718 5718 5718 5718 5718 5718 5718 5718 5718 5718 5718 5717 5717 5717 5717 5716 5716 5716 5715 5715 5715 5715 5715 5715 5714 5714 5713 5713 5712
5710 5711 5712 5713 5713 5713 5713 5713 5713 5713 5713 5714 5714 5714 5714 5714 5715 5715 5714 5714 5714 5714 5714 5714 5714 5714 5713 5713 5713 5713 5713 5712 5712 5712 5711 5711 5711 5711 5711 5710 5710 5710 5709
5704 5706 5707 5708 5709 5708 5708 5709 5709 5709 5709 5709 5709 5710 5710 5710 5711 5711 5710 5710 5711 5710 5711 5710 5710 5710 5710 5710 5710 5710 5709 5709 5708 5708 5708 5707 5707 5708 5707 5707 5706 5706 5705
5698 5700 5702 5703 5704 5704 5704 5704 5704 5704 5705 5705 5705 5705 5705 5706 5706 5706 5706 5706 5706 5707 5707 5707 5706 5706 5706 5706 5706 5706 5705 5705 5705 5704 5704 5704 5704 5704 5704 5703 5703 5702 5702
5692 5695 5697 5698 5699 5698 5699 5699 5699 5699 5699 5700 5700 5700 5700 5700 5701 5701 5702 5702 5702 5703 5703 5703 5703 5702 5702 5702 5702 5702 5701 5701 5701 5701 5700 5700 5700 5701 5701 5700 5700 5699 5698
5686 5688 5690 5692 5692 5692 5692 5693 5694 5694 5694 5694 5694 5694 5695 5695 5696 5696 5697 5697 5697 5698 5698 5698 5698 5698 5698 5698 5698 5697 5697 5697 5697 5697 5696 5696 5697 5697 5697 5696 5696 5695 5695
5678 5681 5683 5685 5686 5686 5686 5687 5688 5688 5688 5688 5688 5688 5689 5689 5690 5691 5691 5692 5692 5693 5693 5694 5694 5693 5693 5693 5693 5693 5693 5692 5692 5692 5692 5692 5693 5693 5693 5693 5692 5692 5691
5671 5673 5676 5678 5678 5678 5679 5680 5681 5681 5682 5682 5681 5682 5682 5683 5683 5684 5685 5686 5687 5687 5688 5688 5689 5689 5688 5688 5688 5688 5688 5688 5687 5687 5688 5688 5689 5689 5689 5689 5688 5688 5687
5662 5664 5667 5670 5671 5671 5672 5673 5674 5674 5675 5675 5675 5675 5676 5676 5677 5678 5679 5680 5681 5682 5682 5683 5684 5684 5683 5683 5683 5683 5683 5682 5683 5683 5684 5684 5685 5686 5686 5685 5685 5684 5684
5654 5656 5659 5661 5663 5664 5666 5666 5667 5667 5668 5668 5668 5669 5670 5670 5671 5672 5673 5674 5675 5676 5677 5677 5678 5678 5678 5678 5678 5678 5678 5678 5678 5678 5679 5680 5681 5681 5681 5681 5681 5680 5680
5648 5650 5652 5653 5655 5658 5659 5660 5660 5661 5660 5661 5662 5663 5663 5664 5664 5665 5666 5667 5668 5669 5671 5671 5672 5673 5673 5673 5673 5673 5673 5673 5673 5674 5674 5675 5676 5676 5677 5677 5676 5676 5675
5642 5644 5645 5647 5649 5651 5652 5653 5654 5655 5654 5655 5656 5657 5657 5657 5658 5658 5659 5660 5662 5663 5664 5665 5666 5666 5667 5667 5667 5667 5668 5668 5668 5669 5669 5670 5670 5671 5671 5671 5671 5671 5671
5637 5638 5638 5641 5643 5644 5645 5647 5648 5649 5648 5649 5649 5650 5651 5651 5651 5652 5652 5653 5655 5656 5657 5658 5660 5661 5661 5662 5662 5662 5662 5663 5663 5663 5664 5664 5665 5665 5665 5665 5666 5666 5665
5633 5632 5633 5634 5636 5637 5638 5640 5641 5642 5642 5642 5643 5644 5645 5645 5645 5646 5646 5647 5648 5650 5651 5652 5653 5655 5655 5655 5655 5656 5656 5657 5657 5658 5658 5658 5658 5658 5659 5659 5659 5659 5659
5628 5628 5629 5629 5629 5631 5632 5633 5634 5635 5636 5637 5637 5637 5638 5639 5639 5639 5639 5640 5641 5643 5644 5646 5646 5648 5649 5649 5649 5649 5650 5651 5651 5651 5651 5651 5651 5651 5651 5651 5652 5652 5652
5622 5623 5624 5624 5624 5625 5626 5626 5627 5627 5628 5629 5629 5630 5631 5632 5633 5633 5633 5633 5635 5636 5637 5639 5640 5640 5641 5641 5642 5642 5643 5643 5644 5644 5644 5644 5644 5644 5643 5643 5644 5644 5644
5617 5617 5618 5618 5619 5619 5620 5619 5620 5620 5620 5621 5622 5623 5624 5625 5626 5626 5625 5626 5627 5629 5630 5632 5632 5632 5633 5634 5634 5635 5635 5635 5636 5636 5636 5636 5636 5636 5635 5635 5635 5635 5635
5612 5612 5612 5613 5613 5613 5613 5612 5612 5612 5612 5613 5614 5615 5616 5617 5618 5618 5618 5619 5620 5621 5622 5623 5624 5625 5626 5626 5627 5626 5626 5627 5627 5627 5627 5627 5627 5627 5627 5626 5626 5626 5626
5606 5607 5607 5607 5607 5607 5606 5605 5605 5604 5604 5605 5605 5607 5608 5610 5611 5611 5611 5611 5612 5613 5614 5616 5616 5616 5616 5618 5618 5617 5617 5617 5618 5618 5618 5618 5618 5617 5617 5617 5617 5617 5617
5602 5602 5602 5602 5602 5602 5601 5600 5599 5598 5596 5596 5596 5597 5599 5601 5602 5603 5603 5604 5604 5605 5606 5607 5608 5607 5607 5608 5609 5608 5607 5607 5608 5609 5608 5608 5608 5608 5607 5607 5607 5607 5607
5597 5598 5599 5598 5597 5597 5595 5593 5591 5589 5587 5586 5587 5589 5591 5593 5594 5595 5596 5596 5597 5598 5598 5599 5600 5600 5598 5598 5599 5600 5599 5598 5596 5598 5598 5598 5598 5597 5597 5597 5597 5597 5597
5593 5594 5593 5592 5591 5590 5588 5587 5586 5584 5582 5581 5581 5582 5583 5585 5586 5587 5587 5588 5589 5589 5590 5590 5591 5591 5590 5588 5589 5589 5589 5590 5587 5587 5588 5588 5588 5588 5587 5587 5587 5587 5587
5589 5588 5587 5586 5585 5584 5583 5582 5581 5578 5577 5575 5575 5575 5576 5577 5578 5580 5579 5580 5581 5581 5581 5581 5581 5581 5581 5580 5580 5579 5578 5577 5578 5577 5576 5577 5578 5578 5577 5577 5577 5577 5577
5582 5582 5582 5581 5579 5578 5577 5576 5575 5573 5570 5569 5568 5568 5569 5569 5570 5571 5571 5571 5572 5572 5572 5572 5572 5572 5572 5571 5570 5569 5569 5568 5567 5566 5565 5565 5565 5567 5567 5567 5566 5566 5566